Regional Weather Roundup
Issued by NWS Charleston, WV

Home | Current Version | Previous Version | Graphics & Text | Print | Product List | Glossary On
Versions: 1 2 3 4 5 6 7 8 9 10 11 12 13 14 15 16 17 18 19 20 21 22 23 24 25 26 27 28 29 30 31 32 33 34 35 36 37 38 39 40 41 42 43 44 45 46 47 48 49 50
000
ASUS41 KRLX 300310
RWRRLX
West Virginia Regional Weather Roundup
National Weather Service Charleston WV
1100 PM EDT MON JUN 29 2015

Note: "fair" indicates few or no clouds below 12,000 feet with no
significant weather and/or obstructions to visibility.

WVZ003-300400-
Northern Panhandle of West Virginia

CITY           SKY/WX    TMP DP  RH WIND       PRES   REMARKS
WHEELING       LGT RAIN  62  59  90 E10       29.88R FOG
$$

WVZ009-300400-
Northwest West Virginia

CITY           SKY/WX    TMP DP  RH WIND       PRES   REMARKS
PARKERSBURG    NOT AVBL
$$

WVZ006-300400-
Western West Virginia

CITY           SKY/WX    TMP DP  RH WIND       PRES   REMARKS
HUNTINGTON     CLOUDY    67  66  97 S3        29.87R
$$

WVZ015-300400-
West Central West Virginia

CITY           SKY/WX    TMP DP  RH WIND       PRES   REMARKS
CHARLESTON     CLOUDY    67  65  93 E3        29.87F
$$

WVZ022-031-300400-
North Central West Virginia

CITY           SKY/WX    TMP DP  RH WIND       PRES   REMARKS
CLARKSBURG     LGT RAIN  66  62  87 S5        29.91R
MORGANTOWN     CLOUDY    71  55  56 S5        29.90R
$$

WVZ025-035-042-045-300400-
Southern West Virginia

CITY           SKY/WX    TMP DP  RH WIND       PRES   REMARKS
BECKLEY        CLOUDY    69  56  62 S10       29.99R
LOGAN          MOCLDY    70  63  78 CALM      29.89S
BLUEFIELD      MOCLDY    71  55  56 S13       30.02R
LEWISBURG      CLOUDY    70  55  59 S3        29.99F
$$

WVZ047-300400-
Northern Mountains of West Virginia

CITY           SKY/WX    TMP DP  RH WIND       PRES   REMARKS
ELKINS         LGT RAIN  63  59  87 SE5       29.96R
$$

WVZ052-300400-
Eastern Panhandle of West Virginia

CITY           SKY/WX    TMP DP  RH WIND       PRES   REMARKS
MARTINSBURG    MOCLDY    71  57  61 CALM      29.94S
PETERSBURG     CLOUDY    65  60  85 CALM      29.94R
$$



USA.gov is the U.S. government's official web portal to all federal, state and local government web resources and services.